Regional Weather Roundup
Issued by NWS

Home | Current Version | Previous Version | Graphics & Text | Print | Product List | Glossary On
Versions: 1 2 3 4 5 6 7 8 9 10 11 12 13 14 15 16 17 18 19 20 21 22 23 24 25 26 27 28 29 30 31 32 33 34 35 36 37 38 39 40 41 42 43 44 45 46 47 48 49 50
000
ASUS43 KMPX 310010
RWRMN
WEATHER ROUNDUP FOR MINNESOTA
NATIONAL WEATHER SERVICE TWIN CITIES/CHANHASSEN MN
700 PM CDT SAT JUL 30 2016


NOTE: "FAIR" INDICATES FEW OR NO CLOUDS BELOW 12,000 FEET WITH NO
SIGNIFICANT WEATHER AND/OR OBSTRUCTIONS TO VISIBILITY. N/A MEANS
CURRENT SKY AND/OR WEATHER CONDITIONS ARE NOT AVAILABLE.

MNZ060>063-068>070-310100-
   Twin Cities Metro

CITY           SKY/WX    TMP DP  RH WIND       PRES   REMARKS
TWIN CITIES    PTSUNNY   77  62  59 S10       29.97F
6HR MIN TEMP:  75; 6HR MAX TEMP:  81; 6HR PCP: TRACE;

ST PAUL        MOSUNNY   76  63  64 SE9       29.97F
CRYSTAL        CLOUDY    78  61  55 S7        29.96S
BLAINE         MOSUNNY   79  63  57 S12       29.97F
LAKEVILLE      SUNNY     73  66  78 SE6       29.98F
EDEN PRAIRIE   MOSUNNY   78  64  61 SE8       29.96F
6HR MIN TEMP:  76; 6HR MAX TEMP:  83;

LAKEVILLE      SUNNY     73  66  78 SE6       29.98F
SOUTH ST PAUL  SUNNY     75  60  58 S3        29.97F
LAKE ELMO      FAIR      75  64  69 S5        29.99F
$$
MNZ001>005-007-008-013>017-022>024-027-028-310100-
   Northwest Minnesota

CITY           SKY/WX    TMP DP  RH WIND       PRES   REMARKS
BEMIDJI        SUNNY     76  59  54 S7        29.98F
HALLOCK        MOSUNNY   81  63  54 S13       29.88S
ROSEAU         CLOUDY    75  66  73 S8        29.92S
WARROAD        MOSUNNY   75  66  73 S5        29.94S
THIEF RVR FALL CLOUDY    76  64  66 S9        29.94F
CROOKSTON      DRIZZLE   77  63  61 S12       29.92F
FOSSTON        SUNNY     79  59  50 S8        29.96F
DETROIT LAKES  SUNNY     77  57  50 SE10      29.98S
MOORHEAD       MOSUNNY   79  59  50 S12G17    29.93F
PARK RAPIDS    SUNNY     78  54  43 S7        29.98S
MAHNOMEN       FAIR      76  60  56 S5        29.95F
$$
MNZ006-009>011-018-025>026-310100-
   North Central Minnesota

CITY           SKY/WX    TMP DP  RH WIND       PRES   REMARKS
BAUDETTE       SUNNY     76  58  53 S10       29.95F
FLAG ISLAND    CLOUDY    77  61  57 S8        29.91F
INTL FALLS     MOSUNNY   74  61  63 W6        29.98F
6HR MIN TEMP:  68; 6HR MAX TEMP:  79; 6HR PCP:  0.01;

WASKISH        SUNNY     77  63  61 SW7       29.97F
BIG FORK       CLOUDY    73  61  64 CALM      30.00S
LONGVILLE      MOSUNNY   77  54  44 S3        29.99S
GRAND RAPIDS   SUNNY     74  60  61 CALM      30.01S
CRANE LAKE     SUNNY     75  50  41 S2        30.00F
ORR            SUNNY     75  55  50 CALM      29.97S
COOK           SUNNY     77  54  44 SE3       30.00F
WALKER         FAIR      75  56  50 E3        29.98F
$$
MNZ012-019>021-037-310100-
   Northeast Minnesota

CITY           SKY/WX    TMP DP  RH WIND       PRES   REMARKS
DULUTH         MOSUNNY   70  61  73 E7        30.03R
6HR MIN TEMP:  70; 6HR MAX TEMP:  75;

ELY            SUNNY     75  48  38 SW5       30.01S
HIBBING        SUNNY     75  52  44 SE3       30.00S
EVELETH        SUNNY     78  48  34 SW3       30.02S
DULUTH HARBOR  SUNNY     66  63  88 NE9       30.02S
TWO HARBORS    SUNNY     73  61  64 E3        30.01S
SILVER BAY     SUNNY     70  59  68 E6        30.02R
GRAND MARAIS     N/A     66  60  81 E6        30.03S
G MARAIS ARPRT SUNNY     66  55  68 SE3       30.07S
$$
MNZ029>031-032-039>041-046>048-054>057-064-310100-
   West Central Minnesota

CITY           SKY/WX    TMP DP  RH WIND       PRES   REMARKS
FERGUS FALLS   SUNNY     77  59  53 S9        29.96F
WHEATON        SUNNY     79  61  53 SE10      29.95F
MORRIS         SUNNY     79  57  47 S8        29.96S
ALEXANDRIA     SUNNY     77  55  46 SE8       29.99S
ELBOW LAKE     FAIR      76  59  56 S8        29.97S
WADENA         SUNNY     75  57  53 S7        29.98S
GLENWOOD       SUNNY     75  57  53 SE5       29.99S
APPLETON       SUNNY     79  55  44 SE5       29.95F
BENSON         SUNNY     77  54  44 S5        29.97S
ORTONVILLE     SUNNY     77  57  50 SE8       29.95S
MADISON        SUNNY     75  57  53 SE6       29.95F
WILLMAR        FAIR      77  57  50 CALM      29.99S
$$
MNZ033>034-036-042>043-049>051-058-059-310100-
   Central Minnesota

CITY           SKY/WX    TMP DP  RH WIND       PRES   REMARKS
ST CLOUD       SUNNY     79  63  57 E3        29.97S
6HR MIN TEMP:  76; 6HR MAX TEMP:  81;

SAUK CENTRE    FAIR      77  58  52 SE7       29.98S
PAYNESVILLE    MOSUNNY   76  57  51 SE6       29.98S
AITKIN         SUNNY     79  57  47 E6        29.99S
PINE RIVER     SUNNY     77  61  57 CALM      30.01F
BRAINERD       MOSUNNY   77  60  55 VRB5      29.98F
STAPLES        SUNNY     79  55  44 SE3       29.98S
LONG PRAIRIE   FAIR      75  59  57 E6        29.98S
LITTLE FALLS   SUNNY     77  59  53 E3        29.98S
LITCHFIELD     SUNNY     79  59  50 CALM      29.98F
BUFFALO        PTSUNNY   78  62  57 SE9       29.98S
MAPLE LAKE     SUNNY     80  65  59 E5        29.98F
HUTCHINSON     MOSUNNY   78  62  57 S5        29.99S
$$
MNZ037-044-045-052-053-310100-
   East Central Minnesota

CITY           SKY/WX    TMP DP  RH WIND       PRES   REMARKS
PRINCETON      SUNNY     79  64  61 E5        29.98S
MORA           SUNNY     73  59  60 CALM      30.01S
CAMBRIDGE      PTSUNNY   81  63  54 E3        29.97S
RUSH CITY      LGT RAIN  76  63  65 CALM      29.99F
MOOSE LAKE     MOSUNNY   70  66  88 CALM      29.99S
HINCKLEY       FAIR      77  61  57 SE3       30.00S
CLOQUET        PTSUNNY   70  59  68 E3        30.02S
MCGREGOR       CLOUDY    72  64  78 CALM      30.01S
$$
MNZ071>073-080-081-089-090-097-098-310100-
   Southwest Minnesota

CITY           SKY/WX    TMP DP  RH WIND       PRES   REMARKS
MONTEVIDEO     SUNNY     77  55  47 SW5       29.98S
GRANITE FALLS  SUNNY     79  58  49 SE5       29.98S
CANBY          SUNNY     78  59  51 E6        29.96F
MARSHALL       SUNNY     78  57  48 S7        29.96F
REDWOOD FALLS  SUNNY     79  54  41 S7        29.97S
OLIVIA         SUNNY     77  57  50 SW6       29.97S
PIPESTONE      SUNNY     77  57  50 S6        29.98S
WINDOM         SUNNY     79  57  47 CALM      29.98S
WORTHINGTON    PTSUNNY   77  61  57 S6        29.98F
JACKSON        MOSUNNY   77  59  53 SE5       29.99S
TRACY          SUNNY     78  59  51 S5        29.98S
SLAYTON        MOSUNNY   77  58  52 S6        29.99F
$$
MNZ065>067-074>077-082>085-091>093-310100-
   South Central Minnesota

CITY           SKY/WX    TMP DP  RH WIND       PRES   REMARKS
MANKATO        SUNNY     77  63  61 SE7       29.97F
NEW ULM        SUNNY     79  59  50 S5        29.97F
ST JAMES       LGT RAIN  73  57  56 SE5       29.98S
FAIRMONT       SUNNY     77  61  57 SE6       29.97S
GLENCOE        MOSUNNY   80  65  60 CALM      29.97S
FARIBAULT      SUNNY     77  64  65 SE3       29.98F
OWATONNA       SUNNY     75  64  69 E7        29.99S
WASECA         PTSUNNY   75  68  78 E7        29.99F
ALBERT LEA     MOSUNNY   75  66  73 SE3       29.99S
$$
MNZ078>079-086>088-094>096-310100-
   Southeast Minnesota

CITY           SKY/WX    TMP DP  RH WIND       PRES   REMARKS
ROCHESTER      MOSUNNY   73  67  81 CALM      30.00F
6HR MIN TEMP:  73; 6HR MAX TEMP:  79; 6HR PCP: TRACE;

RED WING       MOSUNNY   77  64  65 CALM      29.97F
STANTON        SUNNY     77  64  65 SE3       29.97F
DODGE CENTER   CLOUDY    72  66  83 S5        30.00F
WINONA         MOSUNNY   79  63  57 S3        29.98F
AUSTIN         LGT RAIN  72  66  83 CALM      30.01R
PRESTON        CLOUDY    75  63  65 SE8       30.01S
$$
ABBREVIATIONS USED IN REMARKS
   TC - TEMPERATURES IN CELSIUS
  WCI - WIND CHILL INDEX
   HX - HEAT INDEX
  VSB - VISIBILITY
$$



USA.gov is the U.S. government's official web portal to all federal, state and local government web resources and services.